Location: Hurecourt
(47.9030°N, 6.0653°E)
Time: 21:04:21
(UTC+00:00)

CZ-4B R/B - Pass Details

Date: 14 July 2020
Orbit: 702 x 803 km, 98.9° (Epoch: 14 August)

Event Time Altitude Azimuth Distance (km) Brightness Sun altitude
Rises 02:17:58 0° 10° (N) 3,258 8.0 -12.1°
Reaches altitude 10° 02:20:21 10° 6° (N) 2,311 6.9 -11.9°
Maximum altitude 02:25:16 51° 292° (WNW) 940 3.9 -11.4°
Enters shadow 02:29:11 15° 220° (SW) 1,920 4.9 -11.0°
